JBU341 MYNN-KJFK

Flight info

Callsign JBU341
Flight time N/A
Altitude 31000
Route INGRA2 INGRA G437 ELBOW DCT JAZZI/N0468F330 DCT SAGGY DCT CHIEZ Q161 KALDA Q108 SIE CAMRN5
Aircraft A320/M-SDE3FGHIRWY/LB1

Departure

Time N/A
Airport Lynden Pindling International Airport (MYNN)

Arrival

Time 2026-05-06 05:07
Airport John F. Kennedy International Airport (KJFK)
Time Latitude Longitude Altitude Speed Heading
2026-05-06 03:47 32.81743 -77.79200 35146 ft 460 kts 358°
2026-05-06 03:47 32.84946 -77.78947 35151 ft 460 kts 358°
2026-05-06 03:48 32.91339 -77.78448 35154 ft 460 kts 358°
2026-05-06 03:48 32.97725 -77.77947 35149 ft 460 kts 358°
2026-05-06 03:49 33.04123 -77.77447 35161 ft 460 kts 358°
2026-05-06 03:49 33.10524 -77.76947 35184 ft 461 kts 358°
2026-05-06 03:50 33.16925 -77.76438 35176 ft 461 kts 358°
2026-05-06 03:50 33.23319 -77.75932 35166 ft 460 kts 358°
2026-05-06 03:51 33.29711 -77.75423 35160 ft 460 kts 358°
2026-05-06 03:51 33.36098 -77.74911 35180 ft 460 kts 358°
2026-05-06 03:52 33.42499 -77.74401 35166 ft 460 kts 358°
2026-05-06 03:52 33.48895 -77.73903 35161 ft 460 kts 358°
2026-05-06 03:53 33.55253 -77.73402 35158 ft 461 kts 358°
2026-05-06 03:53 33.61654 -77.72880 35179 ft 461 kts 358°
2026-05-06 03:54 33.68051 -77.72348 35168 ft 462 kts
2026-05-06 03:54 33.74423 -77.71046 35162 ft 465 kts
2026-05-06 03:55 33.80755 -77.69666 35157 ft 465 kts
2026-05-06 03:55 33.87116 -77.68274 35178 ft 465 kts
2026-05-06 03:56 33.93475 -77.66883 35164 ft 464 kts
2026-05-06 03:56 33.99824 -77.65490 35164 ft 463 kts
2026-05-06 03:57 34.06168 -77.64100 35159 ft 463 kts
2026-05-06 03:57 34.12506 -77.62718 35168 ft 462 kts
2026-05-06 03:58 34.18827 -77.61333 35160 ft 461 kts
2026-05-06 03:58 34.25141 -77.59942 35156 ft 461 kts
2026-05-06 03:59 34.31434 -77.58555 35146 ft 460 kts
2026-05-06 03:59 34.37731 -77.57166 35169 ft 460 kts
2026-05-06 04:00 34.44031 -77.55777 35159 ft 459 kts
2026-05-06 04:00 34.50265 -77.54340 35149 ft 461 kts
2026-05-06 04:01 34.56274 -77.51406 35140 ft 469 kts 21°
2026-05-06 04:01 34.62139 -77.47896 35152 ft 470 kts 21°
2026-05-06 04:02 34.67998 -77.44380 35139 ft 470 kts 21°
2026-05-06 04:02 34.73862 -77.40865 35134 ft 470 kts 21°
2026-05-06 04:03 34.79728 -77.37344 35131 ft 470 kts 21°
2026-05-06 04:03 34.85590 -77.33814 35153 ft 470 kts 21°
2026-05-06 04:04 34.91448 -77.30282 35149 ft 470 kts 21°
2026-05-06 04:04 34.96323 -77.27341 35149 ft 470 kts 21°
2026-05-06 04:05 35.02184 -77.23797 35146 ft 470 kts 21°
2026-05-06 04:05 35.08036 -77.20250 35155 ft 469 kts 21°
2026-05-06 04:06 35.13884 -77.16706 35151 ft 469 kts 21°
2026-05-06 04:06 35.19736 -77.13158 35138 ft 469 kts 21°
2026-05-06 04:07 35.25544 -77.09621 35136 ft 470 kts 21°
2026-05-06 04:07 35.31432 -77.06025 35132 ft 470 kts 21°
2026-05-06 04:08 35.37236 -77.02471 35132 ft 470 kts 21°
2026-05-06 04:08 35.43120 -76.98884 35132 ft 469 kts 21°
2026-05-06 04:09 35.48968 -76.95314 35130 ft 469 kts 21°
2026-05-06 04:09 35.54770 -76.91752 35159 ft 469 kts 21°
2026-05-06 04:10 35.60605 -76.88165 35150 ft 469 kts 21°
2026-05-06 04:10 35.66450 -76.84616 35122 ft 468 kts 20°
2026-05-06 04:11 35.72302 -76.81075 35113 ft 469 kts 20°
2026-05-06 04:11 35.78153 -76.77513 35135 ft 469 kts 20°
2026-05-06 04:12 35.83992 -76.73947 35120 ft 468 kts 20°
2026-05-06 04:12 35.89834 -76.70366 35125 ft 468 kts 20°
2026-05-06 04:13 35.95625 -76.66653 35125 ft 470 kts 23°
2026-05-06 04:13 36.01317 -76.62754 35150 ft 471 kts 24°
2026-05-06 04:14 36.07031 -76.58817 35143 ft 470 kts 23°
2026-05-06 04:14 36.12758 -76.54930 35131 ft 469 kts 23°
2026-05-06 04:15 36.18491 -76.51056 35118 ft 469 kts 23°
2026-05-06 04:15 36.24217 -76.47177 35120 ft 469 kts 22°
2026-05-06 04:16 36.29943 -76.43297 35106 ft 469 kts 22°
2026-05-06 04:16 36.35661 -76.39405 35100 ft 469 kts 23°
2026-05-06 04:17 36.41373 -76.35500 35101 ft 468 kts 23°
2026-05-06 04:17 36.47076 -76.31600 35118 ft 468 kts 23°
2026-05-06 04:18 36.52768 -76.27700 35101 ft 467 kts 23°
2026-05-06 04:18 36.58459 -76.23801 35093 ft 466 kts 23°
2026-05-06 04:19 36.64127 -76.19910 35090 ft 466 kts 23°
2026-05-06 04:19 36.69808 -76.16015 35106 ft 466 kts 23°
2026-05-06 04:20 36.75479 -76.12113 35101 ft 465 kts 23°
2026-05-06 04:20 36.81110 -76.08218 35077 ft 465 kts 23°
2026-05-06 04:21 36.86775 -76.04302 35076 ft 465 kts 23°
2026-05-06 04:21 36.92445 -76.00379 35087 ft 465 kts 24°
2026-05-06 04:22 36.98091 -75.96455 35086 ft 464 kts 24°
2026-05-06 04:23 37.06552 -75.90582 35069 ft 463 kts 23°
2026-05-06 04:23 37.12461 -75.87709 35068 ft 452 kts 10°
2026-05-06 04:24 37.18529 -75.85618 35056 ft 452 kts 10°
2026-05-06 04:24 37.24601 -75.83509 35052 ft 453 kts 10°
2026-05-06 04:25 37.30671 -75.81399 35047 ft 453 kts 10°
2026-05-06 04:25 37.36708 -75.79300 35053 ft 453 kts 11°
2026-05-06 04:26 37.42791 -75.77180 35041 ft 454 kts 11°
2026-05-06 04:26 37.48874 -75.75060 35039 ft 454 kts 11°
2026-05-06 04:27 37.54957 -75.72929 35032 ft 454 kts 11°
2026-05-06 04:27 37.61049 -75.70788 35025 ft 454 kts 11°
2026-05-06 04:28 37.67134 -75.68656 35024 ft 454 kts 11°
2026-05-06 04:28 37.73235 -75.66517 35027 ft 455 kts 11°
2026-05-06 04:29 37.79331 -75.64374 35030 ft 455 kts 11°
2026-05-06 04:29 37.85285 -75.61569 35038 ft 463 kts 25°
2026-05-06 04:30 37.90670 -75.57011 35041 ft 467 kts 30°
2026-05-06 04:30 37.95987 -75.52376 35039 ft 467 kts 30°
2026-05-06 04:31 38.01347 -75.47711 35033 ft 467 kts 31°
2026-05-06 04:31 38.06709 -75.43051 35022 ft 467 kts 30°
2026-05-06 04:32 38.12148 -75.38573 35018 ft 466 kts 28°
2026-05-06 04:32 38.17631 -75.34190 35016 ft 466 kts 28°
2026-05-06 04:33 38.23158 -75.29873 35037 ft 463 kts 23°
2026-05-06 04:33 38.29168 -75.27271 35033 ft 453 kts
2026-05-06 04:34 38.35383 -75.25962 35028 ft 453 kts
2026-05-06 04:34 38.41603 -75.24658 35041 ft 453 kts
2026-05-06 04:35 38.47823 -75.23353 35030 ft 453 kts
2026-05-06 04:35 38.54037 -75.22043 35021 ft 453 kts
2026-05-06 04:36 38.60207 -75.20743 35016 ft 452 kts
2026-05-06 04:36 38.66462 -75.19401 35009 ft 453 kts
2026-05-06 04:37 38.72321 -75.16473 35005 ft 460 kts 28°
2026-05-06 04:37 38.77513 -75.11607 35002 ft 463 kts 35°
2026-05-06 04:38 38.82626 -75.06584 35006 ft 463 kts 35°
2026-05-06 04:38 38.87740 -75.01562 35016 ft 463 kts 35°
2026-05-06 04:39 38.92847 -74.96535 35010 ft 462 kts 35°
2026-05-06 04:39 38.97949 -74.91507 35009 ft 462 kts 35°
2026-05-06 04:40 39.03046 -74.86473 35011 ft 462 kts 35°
2026-05-06 04:40 39.08128 -74.81443 34655 ft 459 kts 35°
2026-05-06 04:40 39.10651 -74.78925 33879 ft 462 kts 36°
2026-05-06 04:41 39.13166 -74.76309 32913 ft 465 kts 38°
2026-05-06 04:41 39.15648 -74.73630 32016 ft 467 kts 38°
2026-05-06 04:41 39.18129 -74.70899 31109 ft 470 kts 39°
2026-05-06 04:41 39.20615 -74.68146 30101 ft 474 kts 40°
2026-05-06 04:42 39.23134 -74.65371 28945 ft 477 kts 40°
2026-05-06 04:42 39.25663 -74.62605 27933 ft 477 kts 39°
2026-05-06 04:42 39.28205 -74.59847 26740 ft 480 kts 39°
2026-05-06 04:42 39.30757 -74.57091 26057 ft 474 kts 39°
2026-05-06 04:43 39.33268 -74.54378 25337 ft 468 kts 39°
2026-05-06 04:43 39.35756 -74.51686 24596 ft 464 kts 39°
2026-05-06 04:43 39.38218 -74.49009 23867 ft 461 kts 39°
2026-05-06 04:43 39.40629 -74.46375 23088 ft 458 kts 39°
2026-05-06 04:44 39.43050 -74.43729 22384 ft 453 kts 39°
2026-05-06 04:44 39.45446 -74.41110 21664 ft 448 kts 39°
2026-05-06 04:44 39.47821 -74.38513 20959 ft 444 kts 39°
2026-05-06 04:44 39.50172 -74.35941 20255 ft 440 kts 39°
2026-05-06 04:45 39.52500 -74.33392 19577 ft 437 kts 39°
2026-05-06 04:45 39.54820 -74.30853 18935 ft 434 kts 39°
2026-05-06 04:45 39.57117 -74.28339 18310 ft 432 kts 39°
2026-05-06 04:45 39.59402 -74.25834 17688 ft 428 kts 39°
2026-05-06 04:46 39.61655 -74.23360 17430 ft 424 kts 38°
2026-05-06 04:46 39.63898 -74.20892 17050 ft 422 kts 38°
2026-05-06 04:46 39.66128 -74.18434 16673 ft 419 kts 38°
2026-05-06 04:46 39.68345 -74.15996 16297 ft 416 kts 38°
2026-05-06 04:47 39.70550 -74.13572 15922 ft 414 kts 38°
2026-05-06 04:47 39.72739 -74.11159 15553 ft 411 kts 38°
2026-05-06 04:47 39.74910 -74.08759 15186 ft 409 kts 38°
2026-05-06 04:47 39.77075 -74.06363 14819 ft 406 kts 38°
2026-05-06 04:48 39.79219 -74.03986 14459 ft 404 kts 38°
2026-05-06 04:48 39.81350 -74.01625 14104 ft 402 kts 38°
2026-05-06 04:48 39.83486 -73.99299 13737 ft 399 kts 34°
2026-05-06 04:48 39.85784 -73.97388 13365 ft 395 kts 25°
2026-05-06 04:49 39.88200 -73.95701 13009 ft 393 kts 25°
2026-05-06 04:49 39.90598 -73.94011 12656 ft 391 kts 25°
2026-05-06 04:49 39.92983 -73.92320 12311 ft 389 kts 26°
2026-05-06 04:49 39.95354 -73.90635 11955 ft 387 kts 26°
2026-05-06 04:50 39.97708 -73.88960 11613 ft 385 kts 25°
2026-05-06 04:50 40.00053 -73.87292 11281 ft 382 kts 26°
2026-05-06 04:50 40.02330 -73.85496 10932 ft 383 kts 33°
2026-05-06 04:50 40.04439 -73.83379 10839 ft 383 kts 34°
2026-05-06 04:51 40.06554 -73.81261 10756 ft 383 kts 34°
2026-05-06 04:51 40.08670 -73.79148 10674 ft 382 kts 34°
2026-05-06 04:51 40.10783 -73.77040 10600 ft 382 kts 34°
2026-05-06 04:51 40.12893 -73.74936 10512 ft 381 kts 34°
2026-05-06 04:52 40.15004 -73.72827 10302 ft 380 kts 34°
2026-05-06 04:52 40.16389 -73.71441 10155 ft 379 kts 34°
2026-05-06 04:52 40.19156 -73.68667 9949 ft 364 kts 34°
2026-05-06 04:52 40.20459 -73.67357 10009 ft 349 kts 34°
2026-05-06 04:53 40.22333 -73.65466 10017 ft 331 kts 34°
2026-05-06 04:53 40.24112 -73.63669 10023 ft 315 kts 34°
2026-05-06 04:53 40.25815 -73.61953 10024 ft 305 kts 33°
2026-05-06 04:53 40.27503 -73.60258 10021 ft 305 kts 33°
2026-05-06 04:54 40.29181 -73.58574 10021 ft 304 kts 33°
2026-05-06 04:54 40.30865 -73.56888 10019 ft 304 kts 34°
2026-05-06 04:54 40.32636 -73.55419 10019 ft 300 kts 20°
2026-05-06 04:54 40.34587 -73.54536 9872 ft 294 kts
2026-05-06 04:55 40.36589 -73.54048 9684 ft 292 kts
2026-05-06 04:55 40.38587 -73.53569 9520 ft 292 kts
2026-05-06 04:55 40.40578 -73.53090 9345 ft 291 kts
2026-05-06 04:55 40.42575 -73.52607 9174 ft 291 kts
2026-05-06 04:56 40.44544 -73.52127 9019 ft 291 kts
2026-05-06 04:56 40.46554 -73.51637 8839 ft 290 kts
2026-05-06 04:56 40.48516 -73.51159 8681 ft 290 kts
2026-05-06 04:56 40.50499 -73.50673 8511 ft 289 kts
2026-05-06 04:57 40.52476 -73.50189 8344 ft 289 kts
2026-05-06 04:57 40.54449 -73.49709 8173 ft 288 kts
2026-05-06 04:57 40.56419 -73.49228 8009 ft 288 kts
2026-05-06 04:57 40.58392 -73.48744 7852 ft 288 kts
2026-05-06 04:58 40.60362 -73.48262 7682 ft 289 kts
2026-05-06 04:58 40.62336 -73.47779 7499 ft 289 kts
2026-05-06 04:58 40.64307 -73.47293 7351 ft 288 kts
2026-05-06 04:58 40.66278 -73.46807 7185 ft 288 kts
2026-05-06 04:59 40.68239 -73.46251 7018 ft 289 kts 13°
2026-05-06 04:59 40.70100 -73.45209 6783 ft 292 kts 22°
2026-05-06 04:59 40.71921 -73.44043 6549 ft 291 kts 22°
2026-05-06 04:59 40.73776 -73.42990 6308 ft 286 kts 10°
2026-05-06 05:00 40.75716 -73.42852 6070 ft 276 kts 345°
2026-05-06 05:00 40.77468 -73.43723 5752 ft 266 kts 321°
2026-05-06 05:00 40.78776 -73.45375 5371 ft 257 kts 298°
2026-05-06 05:00 40.79709 -73.47380 5013 ft 257 kts 296°
2026-05-06 05:01 40.80639 -73.49404 4633 ft 258 kts 296°
2026-05-06 05:01 40.81551 -73.51433 4278 ft 255 kts 290°
2026-05-06 05:01 40.81996 -73.53643 3929 ft 247 kts 269°
2026-05-06 05:01 40.81760 -73.55823 3733 ft 236 kts 250°
2026-05-06 05:02 40.81228 -73.57834 3543 ft 230 kts 249°
2026-05-06 05:02 40.80709 -73.59802 3357 ft 224 kts 249°
2026-05-06 05:02 40.80204 -73.61711 3159 ft 217 kts 248°
2026-05-06 05:02 40.79504 -73.63417 2982 ft 208 kts 230°
2026-05-06 05:03 40.78398 -73.64611 2774 ft 205 kts 214°
2026-05-06 05:03 40.77186 -73.65558 2575 ft 200 kts 213°
2026-05-06 05:03 40.76009 -73.66481 2405 ft 194 kts 213°
2026-05-06 05:03 40.74883 -73.67364 2313 ft 183 kts 213°
2026-05-06 05:04 40.73814 -73.68203 2158 ft 174 kts 213°
2026-05-06 05:04 40.72791 -73.69006 1919 ft 168 kts 212°
2026-05-06 05:04 40.71807 -73.69778 1717 ft 161 kts 212°
2026-05-06 05:04 40.70865 -73.70517 1500 ft 155 kts 212°
2026-05-06 05:05 40.69943 -73.71240 1295 ft 151 kts 212°
2026-05-06 05:05 40.69064 -73.71929 1093 ft 142 kts 211°
2026-05-06 05:05 40.68240 -73.72574 905 ft 135 kts 211°
2026-05-06 05:05 40.67445 -73.73197 734 ft 133 kts 209°
2026-05-06 05:06 40.66664 -73.73809 568 ft 133 kts 209°
2026-05-06 05:06 40.65871 -73.74434 511 ft 133 kts 208°
2026-05-06 05:06 40.65076 -73.75057 256 ft 134 kts 209°
2026-05-06 05:06 40.64295 -73.75669 29 ft 130 kts 209°
2026-05-06 05:07 40.63702 -73.76130 23 ft 46 kts 212°
2026-05-06 05:07 40.63482 -73.76297 24 ft 30 kts 211°
2026-05-06 05:07 40.63341 -73.76436 22 ft 22 kts 229°
2026-05-06 05:07 40.63266 -73.76563 21 ft 14 kts 238°
2026-05-06 05:08 40.63233 -73.76654 21 ft 9 kts 259°
2026-05-06 05:08 40.63238 -73.76710 19 ft 5 kts 287°
2026-05-06 05:08 40.63260 -73.76766 19 ft 7 kts 299°
2026-05-06 05:08 40.63288 -73.76827 20 ft 8 kts 302°
2026-05-06 05:09 40.63320 -73.76892 21 ft 9 kts 302°
2026-05-06 05:09 40.63374 -73.76942 22 ft 11 kts 356°
2026-05-06 05:09 40.63449 -73.76929 23 ft 11 kts
2026-05-06 05:09 40.63528 -73.76920 25 ft 11 kts
2026-05-06 05:10 40.63609 -73.76917 28 ft 12 kts
2026-05-06 05:10 40.63701 -73.76916 27 ft 14 kts
2026-05-06 05:10 40.63809 -73.76914 29 ft 16 kts
2026-05-06 05:10 40.63927 -73.76913 27 ft 18 kts
2026-05-06 05:11 40.64060 -73.76907 27 ft 21 kts
2026-05-06 05:11 40.64148 -73.76892 22 ft 1 kts
2026-05-06 05:11 40.64156 -73.76891 22 ft 0 kts
2026-05-06 05:12 40.64161 -73.76890 22 ft 0 kts
2026-05-06 05:13 40.64164 -73.76889 22 ft 0 kts
2026-05-06 05:13 40.64165 -73.76889 22 ft 1 kts
2026-05-06 05:13 40.64166 -73.76889 22 ft 1 kts
2026-05-06 05:14 40.64195 -73.76886 22 ft 6 kts
2026-05-06 05:14 40.64251 -73.76885 21 ft 9 kts
2026-05-06 05:14 40.64326 -73.76884 21 ft 12 kts 356°
2026-05-06 05:14 40.64397 -73.76929 20 ft 11 kts 300°
2026-05-06 05:15 40.64462 -73.76988 19 ft 14 kts 356°
2026-05-06 05:15 40.64557 -73.76986 19 ft 13 kts
2026-05-06 05:15 40.64646 -73.76989 21 ft 9 kts 352°
2026-05-06 05:15 40.64702 -73.77013 23 ft 8 kts 333°
2026-05-06 05:16 40.64754 -73.77063 24 ft 10 kts 316°
2026-05-06 05:16 40.64778 -73.77156 23 ft 13 kts 249°
2026-05-06 05:16 40.64748 -73.77234 23 ft 5 kts 295°
2026-05-06 05:16 40.64771 -73.77283 23 ft 7 kts 297°
2026-05-06 05:17 40.64775 -73.77348 26 ft 8 kts 243°
2026-05-06 05:17 40.64730 -73.77371 23 ft 5 kts 154°
2026-05-06 05:17 40.64708 -73.77344 23 ft 4 kts 128°
2026-05-06 05:17 40.64689 -73.77333 23 ft 4 kts 198°
2026-05-06 05:18 40.64656 -73.77345 23 ft 6 kts 191°
2026-05-06 05:18 40.64637 -73.77350 23 ft 2 kts 193°
2026-05-06 05:18 40.64625 -73.77353 23 ft 1 kts 192°
2026-05-06 05:18 40.64622 -73.77354 23 ft 0 kts 192°